Regional Weather Roundup
Issued by NWS

Home | Current Version | Previous Version | Text Only | Print | Product List | Glossary Off
Versions: 1 2 3 4 5 6 7 8 9 10 11 12 13 14 15 16 17 18 19 20 21 22 23 24 25 26 27 28 29 30 31 32 33 34 35 36 37 38 39 40 41 42 43 44 45 46 47 48 49 50

000
ASUS45 KCYS 162010
RWRWY

WYOMING REGIONAL WEATHER ROUNDUP
NATIONAL WEATHER SERVICE CHEYENNE WY
200 PM MDT TUE SEP 16 2014

NOTE:  "FAIR" INDICATES FEW OR NO CLOUDS BELOW 12,000 FEET
WITH NO SIGNIFICANT WEATHER AND/OR OBSTRUCTIONS TO VISIBILITY.

WYZ001-162100-
YELLOWSTONE NATIONAL PARK

CITY           SKY/WX    TMP DP  RH WIND       PRES   REMARKS
LK YELLOWSTONE   N/A     65  33  30 W9        30.32S
W YELLOWSTONE  NOT AVBL

$$
WYZ002>013-054>058-071-098>099-162100-
NORTHERN WYOMING

CITY           SKY/WX    TMP DP  RH WIND       PRES   REMARKS
JACKSON        PTSUNNY   70  36  28 S7        30.23F
CODY           MOSUNNY   75  46  35 N10       30.07S
GREYBULL       SUNNY     78  45  30 CALM      30.01F
WORLAND        MOSUNNY   79  45  29 NE3       30.03F
SHERIDAN       MOSUNNY   83  30  14 VRB3      30.01F
BUFFALO        SUNNY     80  36  20 N7        30.07S
GILLETTE       MOSUNNY   83  35  18 VRB6      30.02F
HULETT         FAIR      79  36  21 MISG      30.04
NEWCASTLE      FAIR      79  32  18 N5        30.04

$$
WYZ014>020-022>026-101>103-162100-
CENTRAL WYOMING

CITY           SKY/WX    TMP DP  RH WIND       PRES   REMARKS
BIG PINEY      MOSUNNY   76  31  19 W6        30.26F
PINEDALE       PTCLDY    73  28  19 NW10      30.27F
DUBOIS         CLOUDY    73  28  19 NW20G29   30.23S
LANDER         SUNNY     81  35  19 VRB5      30.13F
RIVERTON       SUNNY     79  41  25 E6        30.12F
CASPER         MOSUNNY   86  28  12 W20G26    30.10F
DOUGLAS        SUNNY     85  35  16 NW10G24   30.09F

$$
WYZ021-027>030-104>119-162100-
SOUTHERN WYOMING

CITY           SKY/WX    TMP DP  RH WIND       PRES   REMARKS
EVANSTON       MOSUNNY   76  38  25 W13G21    30.27F
KEMMERER       PTCLDY    75  32  20 W6        30.28F
FORT BRIDGER   FAIR      82  33  16 W12G23    30.29F
ROCK SPRINGS   SUNNY     81  30  15 W17G24    30.24F
DIXON          FAIR      79  33  18 W5        30.27F
RAWLINS        SUNNY     78  27  15 VRB7G25   30.24F
SARATOGA       FAIR      77  30  18 NW8       30.28S
LARAMIE        MOSUNNY   77  30  17 W15G25    30.27F
CHEYENNE       SUNNY     80  29  15 N16G22    30.19F
TORRINGTON     SUNNY     84  47  27 S7        30.05F
PINE BLUFFS    FAIR      81  32  17 N12G20    30.14F

$$


USA.gov is the U.S. government's official web portal to all federal, state and local government web resources and services.